Total_Precipitation_Accumulation
1.14 1.10 0.97 0.78 0.66 0.62 0.62 0.56 0.46 0.42 0.41 0.40 0.35 0.35 0.43 0.42 0.38 0.42 0.43 0.41 0.40 0.40 0.38 0.38 0.42 0.47 0.45 0.43 0.48 0.51 0.53 0.51 0.43 0.37 0.22 0.14 0.15 0.14 0.17 0.09 0.04 0.03 0.04
0.89 0.80 0.70 0.54 0.48 0.52 0.51 0.44 0.33 0.31 0.31 0.36 0.34 0.32 0.42 0.52 0.54 0.51 0.47 0.41 0.37 0.32 0.28 0.27 0.28 0.32 0.37 0.41 0.45 0.44 0.46 0.47 0.42 0.38 0.30 0.22 0.23 0.21 0.22 0.19 0.13 0.09 0.09
0.84 0.69 0.62 0.56 0.52 0.51 0.44 0.36 0.27 0.25 0.27 0.29 0.39 0.36 0.38 0.45 0.53 0.51 0.45 0.40 0.35 0.30 0.28 0.27 0.24 0.24 0.30 0.33 0.40 0.47 0.47 0.44 0.42 0.35 0.36 0.35 0.29 0.26 0.26 0.22 0.19 0.20 0.18
1.03 0.83 0.72 0.65 0.56 0.46 0.36 0.31 0.27 0.30 0.34 0.32 0.30 0.29 0.34 0.41 0.49 0.43 0.37 0.35 0.31 0.28 0.29 0.28 0.25 0.26 0.26 0.30 0.36 0.47 0.53 0.55 0.51 0.42 0.39 0.39 0.34 0.30 0.25 0.25 0.29 0.31 0.29
0.72 0.53 0.46 0.43 0.38 0.30 0.25 0.22 0.21 0.21 0.21 0.23 0.19 0.18 0.23 0.30 0.32 0.29 0.26 0.24 0.28 0.29 0.27 0.26 0.27 0.24 0.21 0.24 0.25 0.35 0.43 0.53 0.56 0.55 0.50 0.44 0.37 0.32 0.27 0.28 0.29 0.34 0.31
0.35 0.28 0.24 0.20 0.17 0.15 0.15 0.13 0.10 0.08 0.09 0.14 0.13 0.14 0.17 0.19 0.21 0.17 0.18 0.22 0.26 0.29 0.28 0.27 0.27 0.25 0.21 0.17 0.13 0.14 0.21 0.29 0.39 0.47 0.52 0.48 0.46 0.40 0.36 0.32 0.28 0.29 0.29
0.08 0.06 0.06 0.06 0.06 0.05 0.05 0.05 0.06 0.06 0.06 0.08 0.08 0.12 0.14 0.11 0.10 0.07 0.17 0.29 0.30 0.26 0.24 0.29 0.31 0.29 0.31 0.31 0.24 0.16 0.16 0.15 0.16 0.22 0.31 0.36 0.38 0.40 0.34 0.29 0.27 0.31 0.31
0.01 0.01 0.01 0.02 0.03 0.04 0.05 0.04 0.02 0.02 0.03 0.06 0.07 0.13 0.12 0.07 0.06 0.06 0.12 0.21 0.26 0.25 0.21 0.25 0.35 0.40 0.44 0.44 0.34 0.29 0.24 0.21 0.15 0.10 0.17 0.23 0.25 0.31 0.31 0.30 0.28 0.24 0.21
0.00 0.00 0.00 0.00 0.01 0.01 0.01 0.01 0.00 0.00 0.01 0.05 0.07 0.09 0.06 0.03 0.02 0.04 0.08 0.20 0.27 0.27 0.22 0.26 0.35 0.43 0.54 0.51 0.39 0.37 0.34 0.25 0.20 0.18 0.15 0.14 0.17 0.21 0.23 0.26 0.28 0.25 0.22
0.00 0.00 0.00 0.00 0.00 0.01 0.01 0.00 0.00 0.00 0.00 0.01 0.03 0.04 0.04 0.03 0.02 0.02 0.04 0.11 0.18 0.23 0.24 0.28 0.39 0.42 0.48 0.43 0.34 0.45 0.49 0.35 0.22 0.23 0.25 0.25 0.23 0.27 0.33 0.34 0.42 0.42 0.36
0.00 0.00 0.00 0.00 0.00 0.01 0.03 0.02 0.01 0.01 0.00 0.00 0.01 0.01 0.01 0.02 0.02 0.02 0.02 0.03 0.05 0.08 0.13 0.17 0.17 0.23 0.25 0.28 0.33 0.41 0.47 0.30 0.19 0.24 0.32 0.33 0.29 0.26 0.28 0.31 0.37 0.45 0.47
0.00 0.00 0.00 0.01 0.01 0.02 0.05 0.03 0.02 0.01 0.00 0.01 0.01 0.01 0.02 0.02 0.01 0.01 0.01 0.01 0.01 0.03 0.06 0.08 0.08 0.12 0.16 0.19 0.24 0.29 0.27 0.23 0.20 0.24 0.25 0.20 0.20 0.18 0.14 0.14 0.18 0.22 0.25
0.00 0.00 0.00 0.00 0.01 0.02 0.02 0.02 0.02 0.01 0.01 0.01 0.02 0.02 0.03 0.04 0.02 0.01 0.01 0.01 0.01 0.02 0.02 0.03 0.04 0.06 0.08 0.13 0.20 0.21 0.21 0.27 0.29 0.25 0.21 0.14 0.12 0.10 0.08 0.10 0.12 0.13 0.14
0.00 0.00 0.00 0.00 0.01 0.02 0.01 0.01 0.01 0.01 0.01 0.01 0.02 0.03 0.04 0.06 0.02 0.01 0.01 0.02 0.02 0.03 0.03 0.04 0.05 0.06 0.08 0.12 0.17 0.20 0.23 0.29 0.32 0.25 0.16 0.11 0.10 0.09 0.08 0.09 0.10 0.09 0.10
0.00 0.00 0.00 0.00 0.01 0.02 0.01 0.00 0.00 0.00 0.00 0.01 0.01 0.02 0.02 0.02 0.01 0.01 0.02 0.03 0.05 0.05 0.07 0.12 0.18 0.22 0.20 0.21 0.24 0.25 0.29 0.26 0.24 0.21 0.18 0.16 0.15 0.14 0.10 0.07 0.05 0.05 0.06
0.00 0.00 0.00 0.00 0.01 0.01 0.02 0.01 0.00 0.00 0.01 0.01 0.00 0.01 0.01 0.01 0.01 0.03 0.07 0.06 0.06 0.06 0.10 0.14 0.25 0.36 0.35 0.35 0.35 0.35 0.36 0.32 0.28 0.24 0.20 0.16 0.14 0.13 0.11 0.09 0.06 0.07 0.09
0.00 0.00 0.00 0.00 0.00 0.00 0.01 0.02 0.02 0.01 0.00 0.00 0.00 0.00 0.00 0.01 0.02 0.03 0.06 0.08 0.10 0.16 0.15 0.19 0.36 0.41 0.35 0.35 0.37 0.36 0.30 0.23 0.19 0.15 0.10 0.07 0.05 0.04 0.04 0.05 0.05 0.05 0.04
0.00 0.00 0.00 0.00 0.00 0.00 0.00 0.00 0.01 0.03 0.04 0.03 0.01 0.00 0.00 0.00 0.01 0.02 0.04 0.07 0.13 0.18 0.20 0.32 0.45 0.47 0.40 0.31 0.24 0.17 0.13 0.09 0.06 0.04 0.03 0.02 0.02 0.01 0.01 0.01 0.01 0.01 0.01
0.00 0.00 0.00 0.00 0.00 0.00 0.00 0.00 0.00 0.01 0.01 0.03 0.03 0.02 0.01 0.01 0.01 0.01 0.02 0.05 0.07 0.09 0.15 0.24 0.32 0.38 0.31 0.16 0.06 0.03 0.02 0.02 0.02 0.01 0.01 0.01 0.01 0.01 0.01 0.01 0.01 0.01 0.01
0.00 0.00 0.00 0.00 0.00 0.00 0.00 0.00 0.00 0.00 0.01 0.01 0.01 0.01 0.02 0.02 0.02 0.01 0.01 0.02 0.03 0.04 0.04 0.07 0.09 0.09 0.05 0.02 0.01 0.01 0.00 0.00 0.00 0.00 0.01 0.01 0.01 0.01 0.01 0.02 0.02 0.03 0.03
0.00 0.00 0.00 0.00 0.00 0.00 0.00 0.01 0.01 0.01 0.01 0.01 0.00 0.00 0.00 0.01 0.01 0.01 0.01 0.01 0.01 0.01 0.01 0.01 0.01 0.01 0.00 0.00 0.00 0.00 0.00 0.00 0.00 0.00 0.01 0.01 0.01 0.01 0.02 0.02 0.02 0.02 0.02
0.00 0.00 0.00 0.00 0.00 0.00 0.00 0.00 0.01 0.01 0.01 0.01 0.01 0.00 0.00 0.01 0.01 0.01 0.01 0.01 0.01 0.01 0.01 0.01 0.00 0.00 0.00 0.00 0.00 0.00 0.00 0.00 0.00 0.00 0.01 0.01 0.01 0.01 0.01 0.01 0.01 0.01 0.01
0.00 0.00 0.00 0.00 0.00 0.00 0.00 0.00 0.00 0.01 0.01 0.01 0.01 0.01 0.00 0.01 0.01 0.01 0.01 0.01 0.01 0.00 0.00 0.00 0.00 0.00 0.00 0.00 0.00 0.00 0.00 0.00 0.01 0.01 0.01 0.01 0.02 0.02 0.01 0.01 0.01 0.00 0.00
0.00 0.00 0.00 0.00 0.00 0.00 0.00 0.00 0.00 0.00 0.00 0.01 0.01 0.01 0.01 0.01 0.01 0.01 0.01 0.01 0.00 0.00 0.00 0.00 0.00 0.00 0.00 0.00 0.00 0.00 0.00 0.00 0.00 0.01 0.01 0.01 0.02 0.01 0.01 0.01 0.01 0.01 0.00
0.00 0.00 0.00 0.00 0.00 0.00 0.00 0.00 0.00 0.00 0.00 0.00 0.01 0.01 0.01 0.01 0.01 0.01 0.00 0.00 0.00 0.00 0.00 0.00 0.00 0.00 0.00 0.00 0.00 0.00 0.01 0.01 0.01 0.00 0.00 0.01 0.01 0.01 0.01 0.01 0.01 0.00 0.00
0.00 0.00 0.00 0.00 0.00 0.00 0.00 0.00 0.00 0.00 0.00 0.01 0.01 0.01 0.01 0.01 0.01 0.01 0.00 0.00 0.00 0.00 0.00 0.00 0.00 0.00 0.00 0.00 0.00 0.00 0.00 0.00 0.00 0.00 0.00 0.00 0.00 0.00 0.00 0.00 0.00 0.00 0.00